Home > Weather > Varel > Past weeks

Flag for Germany Past Weather in Varel, Lower Saxony, Germany — Yesterday and Last 2 Weeks

Now
63 °F

Passing clouds.


Feels Like: 63 °F
Forecast: 56 / 67 °F
Wind: 7 mph from Southwest

Location: Wittmundhaven

Current Time: Jul 29, 2016 at 4:18:50 AM

Latest Report: Jul 29, 2016 at 3:20 AM


Visibility: N/A

Pressure: 29.83 "Hg

Humidity: 100%

Dew Point: 63 °F

Location of VarelLocation

Past Weather in Varel — Graph

°F

Varel Temperature Yesterday

Maximum temperature yesterday: 73 °F (at 4:20 PM)
Minimum temperature yesterday: 57 °F (at 2:20 AM)
Average temperature yesterday: 65 °F

High & Low Weather Summary for the Past Weeks

 TemperatureHumidityPressure
High88 °F (Jul 20, 4:20 PM)100% (Jul 14, 4:20 PM)30.24 "Hg (Jul 14, 4:20 PM)
Low50 °F (Jul 14, 3:20 AM)40% (Jul 20, 6:20 PM)29.83 "Hg (Jul 29, 2:20 AM)
Average65 °F82%30.06 "Hg
* Reported Jul 14 2:20 AM — Jul 29 2:20 AM, Varel, Weather by CustomWeather, © 2016

Note: Actual official high and low records may vary slightly from our data, if they occured in-between our weather recording intervals... More about our weather records

Advertising

Varel Weather History for the Previous 24 Hours

Scroll right to see more
 ConditionsComfort  
Time TempWeatherWind HumidityBarometerVisibility
2:20 AM
Fri, Jul 29
63 °FPartly cloudy.6 mph100%29.83 "Hg6 mi
1:20 AM63 °FPartly cloudy.5 mph100%29.86 "HgN/A
12:20 AM63 °FPartly cloudy.5 mph100%29.86 "HgN/A
11:20 PM
Thu, Jul 28
64 °FPartly cloudy.6 mph94%29.86 "HgN/A
10:20 PM66 °FBroken clouds.6 mph88%29.86 "HgN/A
9:20 PM68 °FPartly sunny.1 mph78%29.86 "HgN/A
8:20 PM70 °FPartly sunny.5 mph73%29.86 "HgN/A
7:20 PM72 °FBroken clouds.3 mph65%29.89 "HgN/A
6:20 PM72 °FPartly sunny.5 mph61%29.89 "HgN/A
5:20 PM73 °FScattered clouds.7 mph53%29.89 "HgN/A
4:20 PM73 °FPartly sunny.6 mph53%29.92 "HgN/A
3:20 PM72 °FScattered clouds.5 mph53%29.95 "HgN/A
2:20 PM72 °FScattered clouds.5 mph53%29.95 "HgN/A
1:20 PM70 °FPassing clouds.5 mph57%29.98 "HgN/A
12:20 PM68 °FScattered clouds.5 mph60%29.98 "HgN/A
11:20 AM66 °FScattered clouds.3 mph64%29.98 "HgN/A
10:20 AM66 °FScattered clouds.2 mph68%29.98 "HgN/A
9:20 AM64 °FScattered clouds.2 mph73%29.98 "HgN/A
8:20 AM61 °FScattered clouds.2 mph88%29.98 "HgN/A
7:20 AM57 °FScattered clouds.2 mph94%29.98 "HgN/A
6:20 AM57 °FFog.3 mph94%29.98 "HgN/A
5:20 AM57 °FPassing clouds.5 mph94%29.98 "HgN/A
4:20 AM57 °FCool.3 mph100%29.98 "Hg3 mi
Weather by CustomWeather, © 2016

See weather overviewHow to use our weather pages